Location: Asheville, NC
(35.6000°N, 82.5500°W)
Time: 03:03:50
(UTC-04:00)

LilacSat-2 - Pass Details

Date: 04 January 2018
Orbit: 515 x 536 km, 97.5° (Epoch: 21 April)

Event Time Altitude Azimuth Distance (km) Brightness Sun altitude
Rises 06:06:15 0° 20° (NNE) 2,671 ? -18.6°
Reaches altitude 10° 06:08:28 10° 28° (NNE) 1,773 ? -18.2°
Maximum altitude 06:12:05 40° 98° (E) 782 ? -17.5°
Drops below altitude 10° 06:15:39 10° 169° (S) 1,749 ? -16.8°
Sets 06:17:49 0° 177° (S) 2,628 ? -16.3°
